﻿測定場所 (Monitoring sites),日付 (Measurement date),時間 (Measurement time),線量率 最大値 (max) μGy/h,線量率 最小値 (min) μGy/h,線量率 平均値 (average) μGy/h,
江戸川 (Edogawa),2022-11-20,23:01～24:00,0.0563,0.0444,0.0502,
江戸川 (Edogawa),2022-11-20,22:01～23:00,0.0569,0.0488,0.0535,
江戸川 (Edogawa),2022-11-20,21:01～22:00,0.0563,0.0457,0.0506,
江戸川 (Edogawa),2022-11-20,20:01～21:00,0.0514,0.0432,0.0472,
江戸川 (Edogawa),2022-11-20,19:01～20:00,0.0502,0.0425,0.0461,
江戸川 (Edogawa),2022-11-20,18:01～19:00,0.0526,0.0440,0.0478,
江戸川 (Edogawa),2022-11-20,17:01～18:00,0.0548,0.0471,0.0506,
江戸川 (Edogawa),2022-11-20,16:01～17:00,0.0535,0.0446,0.0496,
江戸川 (Edogawa),2022-11-20,15:01～16:00,0.0506,0.0411,0.0455,
江戸川 (Edogawa),2022-11-20,14:01～15:00,0.0463,0.0404,0.0433,
江戸川 (Edogawa),2022-11-20,13:01～14:00,0.0461,0.0403,0.0431,
江戸川 (Edogawa),2022-11-20,12:01～13:00,0.0469,0.0397,0.0429,
江戸川 (Edogawa),2022-11-20,11:01～12:00,0.0458,0.0402,0.0428,
江戸川 (Edogawa),2022-11-20,10:01～11:00,0.0462,0.0397,0.0428,
江戸川 (Edogawa),2022-11-20,09:01～10:00,0.0458,0.0412,0.0431,
江戸川 (Edogawa),2022-11-20,08:01～09:00,0.0458,0.0399,0.0427,
江戸川 (Edogawa),2022-11-20,07:01～08:00,0.0456,0.0401,0.0426,
江戸川 (Edogawa),2022-11-20,06:01～07:00,0.0453,0.0395,0.0423,
江戸川 (Edogawa),2022-11-20,05:01～06:00,0.0476,0.0400,0.0426,
江戸川 (Edogawa),2022-11-20,04:01～05:00,0.0452,0.0392,0.0422,
江戸川 (Edogawa),2022-11-20,03:01～04:00,0.0456,0.0383,0.0425,
江戸川 (Edogawa),2022-11-20,02:01～03:00,0.0448,0.0387,0.0417,
江戸川 (Edogawa),2022-11-20,01:01～02:00,0.0448,0.0388,0.0417,
江戸川 (Edogawa),2022-11-20,00:01～01:00,0.0443,0.0382,0.0415,
江戸川 (Edogawa),2022-11-19,23:01～24:00,0.0436,0.0378,0.0414,
江戸川 (Edogawa),2022-11-19,22:01～23:00,0.0448,0.0388,0.0414,
江戸川 (Edogawa),2022-11-19,21:01～22:00,0.0453,0.0379,0.0415,
江戸川 (Edogawa),2022-11-19,20:01～21:00,0.0452,0.0382,0.0412,
江戸川 (Edogawa),2022-11-19,19:01～20:00,0.0442,0.0390,0.0416,
江戸川 (Edogawa),2022-11-19,18:01～19:00,0.0441,0.0383,0.0417,
江戸川 (Edogawa),2022-11-19,17:01～18:00,0.0444,0.0389,0.0414,
江戸川 (Edogawa),2022-11-19,16:01～17:00,0.0443,0.0377,0.0415,
江戸川 (Edogawa),2022-11-19,15:01～16:00,0.0451,0.0378,0.0416,
江戸川 (Edogawa),2022-11-19,14:01～15:00,0.0439,0.0385,0.0417,
江戸川 (Edogawa),2022-11-19,13:01～14:00,0.0445,0.0376,0.0415,
江戸川 (Edogawa),2022-11-19,12:01～13:00,0.0451,0.0392,0.0418,
江戸川 (Edogawa),2022-11-19,11:01～12:00,0.0450,0.0391,0.0421,
江戸川 (Edogawa),2022-11-19,10:01～11:00,0.0445,0.0389,0.0419,
江戸川 (Edogawa),2022-11-19,09:01～10:00,0.0450,0.0381,0.0418,
江戸川 (Edogawa),2022-11-19,08:01～09:00,0.0451,0.0384,0.0416,
江戸川 (Edogawa),2022-11-19,07:01～08:00,0.0457,0.0384,0.0423,
江戸川 (Edogawa),2022-11-19,06:01～07:00,0.0461,0.0396,0.0427,
江戸川 (Edogawa),2022-11-19,05:01～06:00,0.0455,0.0404,0.0425,
江戸川 (Edogawa),2022-11-19,04:01～05:00,0.0457,0.0394,0.0426,
江戸川 (Edogawa),2022-11-19,03:01～04:00,0.0460,0.0402,0.0427,
江戸川 (Edogawa),2022-11-19,02:01～03:00,0.0452,0.0390,0.0424,
江戸川 (Edogawa),2022-11-19,01:01～02:00,0.0457,0.0392,0.0420,
江戸川 (Edogawa),2022-11-19,00:01～01:00,0.0467,0.0388,0.0415,
江戸川 (Edogawa),2022-11-18,23:01～24:00,0.0444,0.0386,0.0415,
江戸川 (Edogawa),2022-11-18,22:01～23:00,0.0447,0.0380,0.0411,
江戸川 (Edogawa),2022-11-18,21:01～22:00,0.0435,0.0367,0.0406,
江戸川 (Edogawa),2022-11-18,20:01～21:00,0.0446,0.0376,0.0411,
江戸川 (Edogawa),2022-11-18,19:01～20:00,0.0447,0.0379,0.0409,
江戸川 (Edogawa),2022-11-18,18:01～19:00,0.0447,0.0379,0.0410,
江戸川 (Edogawa),2022-11-18,17:01～18:00,0.0435,0.0382,0.0412,
江戸川 (Edogawa),2022-11-18,16:01～17:00,0.0441,0.0372,0.0412,
江戸川 (Edogawa),2022-11-18,15:01～16:00,0.0436,0.0390,0.0415,
江戸川 (Edogawa),2022-11-18,14:01～15:00,0.0445,0.0382,0.0415,
江戸川 (Edogawa),2022-11-18,13:01～14:00,0.0448,0.0381,0.0415,
江戸川 (Edogawa),2022-11-18,12:01～13:00,0.0449,0.0388,0.0419,
江戸川 (Edogawa),2022-11-18,11:01～12:00,0.0445,0.0390,0.0418,
江戸川 (Edogawa),2022-11-18,10:01～11:00,0.0453,0.0394,0.0421,
江戸川 (Edogawa),2022-11-18,09:01～10:00,0.0459,0.0397,0.0426,
江戸川 (Edogawa),2022-11-18,08:01～09:00,0.0452,0.0383,0.0420,
江戸川 (Edogawa),2022-11-18,07:01～08:00,0.0455,0.0399,0.0425,
江戸川 (Edogawa),2022-11-18,06:01～07:00,0.0459,0.0396,0.0425,
江戸川 (Edogawa),2022-11-18,05:01～06:00,0.0449,0.0398,0.0422,
江戸川 (Edogawa),2022-11-18,04:01～05:00,0.0456,0.0384,0.0421,
江戸川 (Edogawa),2022-11-18,03:01～04:00,0.0447,0.0385,0.0419,
江戸川 (Edogawa),2022-11-18,02:01～03:00,0.0464,0.0399,0.0421,
江戸川 (Edogawa),2022-11-18,01:01～02:00,0.0440,0.0390,0.0420,
江戸川 (Edogawa),2022-11-18,00:01～01:00,0.0445,0.0391,0.0417,
江戸川 (Edogawa),2022-11-17,23:01～24:00,0.0447,0.0378,0.0412,
江戸川 (Edogawa),2022-11-17,22:01～23:00,0.0435,0.0377,0.0414,
江戸川 (Edogawa),2022-11-17,21:01～22:00,0.0444,0.0382,0.0411,
江戸川 (Edogawa),2022-11-17,20:01～21:00,0.0434,0.0370,0.0410,
江戸川 (Edogawa),2022-11-17,19:01～20:00,0.0457,0.0380,0.0414,
江戸川 (Edogawa),2022-11-17,18:01～19:00,0.0447,0.0388,0.0413,
江戸川 (Edogawa),2022-11-17,17:01～18:00,0.0438,0.0389,0.0413,
江戸川 (Edogawa),2022-11-17,16:01～17:00,0.0443,0.0369,0.0414,
江戸川 (Edogawa),2022-11-17,15:01～16:00,0.0445,0.0384,0.0416,
江戸川 (Edogawa),2022-11-17,14:01～15:00,0.0450,0.0386,0.0414,
江戸川 (Edogawa),2022-11-17,13:01～14:00,0.0451,0.0388,0.0418,
江戸川 (Edogawa),2022-11-17,12:01～13:00,0.0445,0.0379,0.0416,
江戸川 (Edogawa),2022-11-17,11:01～12:00,0.0453,0.0391,0.0419,
江戸川 (Edogawa),2022-11-17,10:01～11:00,0.0441,0.0386,0.0417,
江戸川 (Edogawa),2022-11-17,09:01～10:00,0.0449,0.0384,0.0419,
江戸川 (Edogawa),2022-11-17,08:01～09:00,0.0441,0.0386,0.0417,
江戸川 (Edogawa),2022-11-17,07:01～08:00,0.0444,0.0380,0.0417,
江戸川 (Edogawa),2022-11-17,06:01～07:00,0.0456,0.0375,0.0417,
江戸川 (Edogawa),2022-11-17,05:01～06:00,0.0448,0.0380,0.0412,
江戸川 (Edogawa),2022-11-17,04:01～05:00,0.0447,0.0391,0.0415,
江戸川 (Edogawa),2022-11-17,03:01～04:00,0.0441,0.0376,0.0411,
江戸川 (Edogawa),2022-11-17,02:01～03:00,0.0445,0.0375,0.0411,
江戸川 (Edogawa),2022-11-17,01:01～02:00,0.0460,0.0379,0.0414,
江戸川 (Edogawa),2022-11-17,00:01～01:00,0.0455,0.0378,0.0415,
江戸川 (Edogawa),2022-11-16,23:01～24:00,0.0437,0.0381,0.0409,
江戸川 (Edogawa),2022-11-16,22:01～23:00,0.0434,0.0381,0.0407,
江戸川 (Edogawa),2022-11-16,21:01～22:00,0.0458,0.0380,0.0410,
江戸川 (Edogawa),2022-11-16,20:01～21:00,0.0451,0.0372,0.0410,
江戸川 (Edogawa),2022-11-16,19:01～20:00,0.0432,0.0377,0.0405,
江戸川 (Edogawa),2022-11-16,18:01～19:00,0.0433,0.0377,0.0408,
江戸川 (Edogawa),2022-11-16,17:01～18:00,0.0442,0.0378,0.0410,
江戸川 (Edogawa),2022-11-16,16:01～17:00,0.0434,0.0382,0.0408,
江戸川 (Edogawa),2022-11-16,15:01～16:00,0.0431,0.0375,0.0409,
江戸川 (Edogawa),2022-11-16,14:01～15:00,0.0444,0.0366,0.0414,
江戸川 (Edogawa),2022-11-16,13:01～14:00,0.0441,0.0385,0.0414,
江戸川 (Edogawa),2022-11-16,12:01～13:00,0.0453,0.0380,0.0411,
江戸川 (Edogawa),2022-11-16,11:01～12:00,0.0443,0.0383,0.0411,
江戸川 (Edogawa),2022-11-16,10:01～11:00,0.0444,0.0385,0.0411,
江戸川 (Edogawa),2022-11-16,09:01～10:00,0.0448,0.0390,0.0415,
江戸川 (Edogawa),2022-11-16,08:01～09:00,0.0440,0.0379,0.0411,
江戸川 (Edogawa),2022-11-16,07:01～08:00,0.0434,0.0388,0.0411,
江戸川 (Edogawa),2022-11-16,06:01～07:00,0.0455,0.0393,0.0420,
江戸川 (Edogawa),2022-11-16,05:01～06:00,0.0440,0.0385,0.0412,
江戸川 (Edogawa),2022-11-16,04:01～05:00,0.0435,0.0368,0.0408,
江戸川 (Edogawa),2022-11-16,03:01～04:00,0.0433,0.0376,0.0405,
江戸川 (Edogawa),2022-11-16,02:01～03:00,0.0431,0.0375,0.0403,
江戸川 (Edogawa),2022-11-16,01:01～02:00,0.0434,0.0377,0.0403,
江戸川 (Edogawa),2022-11-16,00:01～01:00,0.0428,0.0375,0.0404,
江戸川 (Edogawa),2022-11-15,23:01～24:00,0.0439,0.0364,0.0410,
江戸川 (Edogawa),2022-11-15,22:01～23:00,0.0435,0.0375,0.0404,
江戸川 (Edogawa),2022-11-15,21:01～22:00,0.0423,0.0372,0.0403,
江戸川 (Edogawa),2022-11-15,20:01～21:00,0.0433,0.0381,0.0405,
江戸川 (Edogawa),2022-11-15,19:01～20:00,0.0459,0.0383,0.0407,
江戸川 (Edogawa),2022-11-15,18:01～19:00,0.0436,0.0380,0.0404,
江戸川 (Edogawa),2022-11-15,17:01～18:00,0.0439,0.0379,0.0405,
江戸川 (Edogawa),2022-11-15,16:01～17:00,0.0440,0.0373,0.0405,
江戸川 (Edogawa),2022-11-15,15:01～16:00,0.0436,0.0382,0.0407,
江戸川 (Edogawa),2022-11-15,14:01～15:00,0.0461,0.0374,0.0418,
江戸川 (Edogawa),2022-11-15,13:01～14:00,0.0464,0.0390,0.0419,
江戸川 (Edogawa),2022-11-15,12:01～13:00,0.0455,0.0382,0.0419,
江戸川 (Edogawa),2022-11-15,11:01～12:00,0.0453,0.0388,0.0426,
江戸川 (Edogawa),2022-11-15,10:01～11:00,0.0461,0.0400,0.0434,
江戸川 (Edogawa),2022-11-15,09:01～10:00,0.0473,0.0398,0.0439,
江戸川 (Edogawa),2022-11-15,08:01～09:00,0.0498,0.0396,0.0452,
江戸川 (Edogawa),2022-11-15,07:01～08:00,0.0523,0.0435,0.0478,
江戸川 (Edogawa),2022-11-15,06:01～07:00,0.0545,0.0455,0.0497,
江戸川 (Edogawa),2022-11-15,05:01～06:00,0.0553,0.0472,0.0503,
江戸川 (Edogawa),2022-11-15,04:01～05:00,0.0505,0.0428,0.0469,
江戸川 (Edogawa),2022-11-15,03:01～04:00,0.0499,0.0422,0.0453,
江戸川 (Edogawa),2022-11-15,02:01～03:00,0.0486,0.0405,0.0452,
江戸川 (Edogawa),2022-11-15,01:01～02:00,0.0472,0.0402,0.0442,
江戸川 (Edogawa),2022-11-15,00:01～01:00,0.0452,0.0395,0.0426,
江戸川 (Edogawa),2022-11-14,23:01～24:00,0.0445,0.0395,0.0420,
江戸川 (Edogawa),2022-11-14,22:01～23:00,0.0453,0.0386,0.0415,
江戸川 (Edogawa),2022-11-14,21:01～22:00,0.0447,0.0377,0.0417,
江戸川 (Edogawa),2022-11-14,20:01～21:00,0.0454,0.0391,0.0423,
江戸川 (Edogawa),2022-11-14,19:01～20:00,0.0446,0.0390,0.0422,
江戸川 (Edogawa),2022-11-14,18:01～19:00,0.0477,0.0390,0.0437,
江戸川 (Edogawa),2022-11-14,17:01～18:00,0.0447,0.0390,0.0418,
江戸川 (Edogawa),2022-11-14,16:01～17:00,0.0456,0.0380,0.0418,
江戸川 (Edogawa),2022-11-14,15:01～16:00,0.0444,0.0386,0.0418,
江戸川 (Edogawa),2022-11-14,14:01～15:00,0.0452,0.0394,0.0420,
江戸川 (Edogawa),2022-11-14,13:01～14:00,0.0474,0.0397,0.0422,
江戸川 (Edogawa),2022-11-14,12:01～13:00,0.0451,0.0395,0.0421,
江戸川 (Edogawa),2022-11-14,11:01～12:00,0.0459,0.0395,0.0422,
江戸川 (Edogawa),2022-11-14,10:01～11:00,0.0455,0.0398,0.0427,
江戸川 (Edogawa),2022-11-14,09:01～10:00,0.0461,0.0388,0.0425,
江戸川 (Edogawa),2022-11-14,08:01～09:00,0.0458,0.0395,0.0422,
江戸川 (Edogawa),2022-11-14,07:01～08:00,0.0456,0.0390,0.0425,
江戸川 (Edogawa),2022-11-14,06:01～07:00,0.0451,0.0404,0.0428,
江戸川 (Edogawa),2022-11-14,05:01～06:00,0.0454,0.0392,0.0430,
江戸川 (Edogawa),2022-11-14,04:01～05:00,0.0458,0.0403,0.0431,
江戸川 (Edogawa),2022-11-14,03:01～04:00,0.0462,0.0399,0.0430,
江戸川 (Edogawa),2022-11-14,02:01～03:00,0.0462,0.0399,0.0427,
江戸川 (Edogawa),2022-11-14,01:01～02:00,0.0455,0.0400,0.0426,
江戸川 (Edogawa),2022-11-14,00:01～01:00,0.0452,0.0395,0.0427,
